EW6655 Weather Reports


time (UTC)temp
C
wind
direction
speed
KPH
gust
KPH
rain 1hr
cm
rain 24hr
cm
rain mn
cm
humidity
%
barometer
mb
20260831043052 13 251 8.0 17.7 0.00 0.00 0.00 90 1010.4
20260831041551 14 279 6.4 19.3 0.00 0.00 0.00 89 1010.4
20260831040052 14 230 9.7 24.1 0.00 0.00 0.00 89 1010.3
20260831034546 14 224 8.0 22.5 0.00 0.00 0.00 88 1010.3
20260831033045 15 202 8.0 20.9 0.00 0.00 0.00 87 1010.3
20260831031543 15 265 8.0 33.8 0.00 0.00 0.00 86 1010.2
20260831030051 15 175 11.3 24.1 0.00 0.00 0.00 86 1010.3
20260831024540 15 240 9.7 25.7 0.00 0.00 0.00 87 1010.2
20260831023038 15 5 11.3 25.7 0.00 0.00 0.00 88 1010.2
20260831021537 15 251 6.4 24.1 0.00 0.00 0.00 89 1010.2
20260831020035 15 244 4.8 22.5 0.00 0.00 0.00 90 1010.1
20260831014536 15 251 6.4 14.5 0.00 0.00 0.00 90 1010.2
20260831013032 15 236 4.8 11.3 0.00 0.00 0.00 89 1010.4
20260831011536 15 198 3.2 14.5 0.00 0.00 0.00 87 1010.5
20260831010027 15 238 4.8 17.7 0.00 0.00 0.00 85 1010.6
20260831004526 15 250 4.8 14.5 0.00 0.05 0.00 85 1010.5
20260831003024 15 215 6.4 12.9 0.00 0.05 0.00 84 1010.6
20260831001522 15 198 4.8 14.5 0.00 0.05 0.00 82 1010.6
20260831000022 15 186 4.8 14.5 0.00 0.05 0.00 82 1010.8
20260830234521 15 242 3.2 11.3 0.00 0.18 0.00 82 1010.8
20260830233027 15 254 3.2 9.7 0.00 0.18 0.00 82 1010.7
20260830231519 15 244 3.2 8.0 0.00 0.18 0.00 83 1010.6
20260830230023 15 247 1.6 6.4 0.00 0.18 0.00 83 1010.8
20260830224517 15 249 1.6 6.4 0.00 0.18 0.00 83 1010.8
20260830223015 15 248 0.0 6.4 0.00 0.18 0.00 83 1010.8
20260830221514 15 196 1.6 8.0 0.00 0.18 0.00 83 1010.9
20260830220018 15 224 1.6 8.0 0.00 0.18 0.00 83 1011.0
20260830214512 15 188 1.6 6.4 0.00 0.18 0.18 83 1011.2
20260830213017 15 201 0.0 4.8 0.00 0.18 0.18 83 1011.2
20260830211511 15 169 1.6 9.7 0.00 0.18 0.18 83 1011.2
20260830210019 15 198 0.0 4.8 0.00 0.18 0.18 82 1011.4
20260830204510 16 176 1.6 4.8 0.00 0.18 0.18 82 1011.5
20260830203009 15 176 0.0 4.8 0.00 0.18 0.18 82 1011.4
20260830201509 15 175 0.0 8.0 0.00 0.18 0.18 82 1011.4
20260830200008 16 206 0.0 4.8 0.00 0.18 0.18 81 1011.5
20260830194511 16 206 1.6 4.8 0.00 0.20 0.18 81 1011.7
20260830193007 16 206 0.0 3.2 0.00 0.20 0.18 80 1011.7
20260830191525 16 206 0.0 4.8 0.00 0.20 0.18 79 1011.8
20260830190006 16 204 1.6 8.0 0.00 0.20 0.18 78 1011.8
20260830184506 16 205 3.2 8.0 0.00 0.23 0.18 78 1011.8
20260830183006 17 200 3.2 11.3 0.00 0.23 0.18 77 1011.8
20260830181506 17 263 1.6 9.7 0.00 0.23 0.18 76 1011.9
20260830180004 17 234 3.2 6.4 0.00 0.23 0.18 75 1011.9
20260830174504 17 227 8.0 16.1 0.00 0.23 0.18 75 1011.9
20260830173007 17 205 3.2 12.9 0.00 0.23 0.18 74 1012.0
20260830171503 17 215 3.2 16.1 0.00 0.23 0.18 74 1012.0
20260830170001 18 238 6.4 16.1 0.00 0.23 0.18 73 1012.1
20260830164502 18 248 3.2 9.7 0.00 0.23 0.18 74 1012.1
20260830163003 18 259 8.0 17.7 0.00 0.23 0.18 72 1012.2
20260830161611 18 208 1.6 12.9 0.00 0.23 0.18 72 1012.3
20260830160103 18 215 9.7 20.9 0.00 0.23 0.18 70 1012.4
20260830154607 18 242 6.4 22.5 0.00 0.23 0.18 70 1012.2
20260830153101 18 243 4.8 19.3 0.00 0.23 0.18 71 1012.4
20260830151558 18 175 4.8 27.4 0.00 0.23 0.18 71 1012.5
20260830150057 18 317 8.0 20.9 0.00 0.23 0.18 70 1012.5
20260830144607 18 259 6.4 22.5 0.00 0.23 0.18 71 1012.5
20260830143056 18 233 8.0 22.5 0.00 0.23 0.18 70 1012.6
20260830141556 18 290 6.4 19.3 0.00 0.23 0.18 71 1012.7
20260830134554 18 249 4.8 22.5 0.00 0.23 0.18 71 1012.8
20260830133102 18 217 8.0 22.5 0.00 0.23 0.18 68 1012.8
20260830131556 19 278 8.0 24.1 0.00 0.23 0.18 68 1012.9
20260830130104 19 199 9.7 22.5 0.00 0.23 0.18 68 1012.8
20260830124549 18 333 9.7 29.0 0.00 0.23 0.18 71 1012.8
20260830123052 18 240 8.0 17.7 0.00 0.23 0.18 69 1012.8
20260830121548 18 305 8.0 22.5 0.00 0.23 0.18 70 1012.9
20260830120101 18 253 8.0 27.4 0.00 0.23 0.18 68 1012.7
20260830114546 18 222 6.4 25.7 0.00 0.23 0.18 68 1012.7
20260830113043 18 244 9.7 24.1 0.00 0.23 0.18 68 1012.5
20260830111544 18 308 8.0 24.1 0.00 0.23 0.18 69 1012.4
20260830110041 18 257 9.7 27.4 0.00 0.23 0.18 71 1012.3
20260830104540 18 290 14.5 27.4 0.00 0.23 0.18 70 1012.5
20260830103037 17 213 4.8 22.5 0.00 0.23 0.18 74 1012.5
20260830101536 17 248 4.8 20.9 0.00 0.23 0.18 74 1012.5
20260830100039 17 179 4.8 17.7 0.00 0.23 0.18 74 1012.4
20260830094539 17 269 1.6 17.7 0.00 0.23 0.18 75 1012.4
20260830093035 17 223 11.3 25.7 0.00 0.23 0.18 74 1012.3
20260830091529 17 355 9.7 24.1 0.00 0.23 0.18 76 1012.3
20260830090031 16 271 6.4 29.0 0.00 0.23 0.18 77 1012.2
20260830084525 16 252 9.7 22.5 0.00 0.23 0.18 78 1012.0
20260830083028 16 240 6.4 25.7 0.00 0.23 0.18 81 1011.9
20260830081533 16 272 11.3 29.0 0.00 0.23 0.18 81 1011.9
20260830080021 16 248 9.7 25.7 0.00 0.23 0.18 81 1011.7
20260830074524 15 234 9.7 25.7 0.00 0.23 0.18 83 1011.7
20260830073018 15 245 12.9 29.0 0.00 0.23 0.18 84 1011.7
20260830071517 15 248 9.7 29.0 0.00 0.23 0.18 84 1011.5
20260830070014 15 190 9.7 22.5 0.00 0.23 0.18 84 1011.3
20260830064513 15 242 6.4 24.1 0.00 0.23 0.18 85 1011.1
20260830063011 15 249 12.9 29.0 0.00 0.23 0.18 85 1011.1
20260830061510 14 250 8.0 20.9 0.00 0.23 0.18 86 1010.9
20260830060020 14 248 8.0 20.9 0.00 0.23 0.18 86 1010.9
20260830054506 14 287 8.0 24.1 0.00 0.23 0.18 86 1010.6
20260830053004 14 227 8.0 20.9 0.00 0.23 0.18 86 1010.6
20260830051501 14 238 11.3 22.5 0.00 0.23 0.18 86 1010.4
20260830050059 14 266 11.3 22.5 0.00 0.23 0.18 85 1010.3
20260830044610 14 233 8.0 20.9 0.00 0.23 0.18 86 1010.1